Powrót do katalogu

COSMOS 829

AktywnyMilitariaLEO
NORAD 8893·PAYLOAD·🇷🇺 Russia

Wystrzelony Jun 15, 1976 z Plesetsk Cosmodrome

Loading…

Następne Przeloty (najbliższe 24 godziny)

TLE

ŚwieżeSource: Space-Track

Epoka: Sep 14, 2026, 08:19 UTC

1 08893U 76054E   26257.34711479 -.00000022  00000-0 -42021-4 0  9997
2 08893  73.9985 225.9460 0025313  38.4889 114.2238 12.48681396290418

Śledź COSMOS 829 w czasie rzeczywistym z AllMySat

Download on the App Store